KSRB  Upper Cumberland Regional Airport

Add Bookmark

Sparta, Tennessee, United States

Status Useage
Operational Public
Latitude Longitude
36° 3' 24" N 85° 31' 48" W
36.056739 -85.530108
Local (DST -5) UTC (GMT -6)
Oct 21, 2014 10:08 Oct 21, 2014 15:08
Sunrise-Sunset Local UTC
Begin Civil Twilight 06:27 11:27
Sunrise 06:53 11:53
Sunset 05:59 22:59
End Civil Twilight 06:25 23:25

Current Weather

METAR Observed VFR
KSRB 211455Z AUTO 00000KT 10SM CLR 15/11 A3006 Tue, Oct 21, 2014 @ 14:55 UTC
(13 Minutes ago)
Visual Flight Rules
Wind Visibility Clouds Conditions
Calm 10 statute miles
  • Clear skies
  • No significant weather
Temperatures Readings Precipitation
Current Temp 15°C (59°F)
Dewpoint 11°C (52°F)
Humidity 77%
Altimeter 30.06"Hg
Sea Level Pressure 1018mb
None Recorded

Additional weather within a 50nm radius of KSRB

Map ICAO Location
KCSV 22.5nm E (106°)
KRNC 26.3nm S (215°)
KMQY 48.1nm W (267°)

24 Hour Weather History

Loading
-

24 Hour Weather Graphs

Loading
-

CheckWX.com is intended as a tool to help pilots better visualize weather data. It is not intended as a substitute for an official weather briefing obtained from a Flight Service Station. CheckWX.com does not meet the FAA requirements for an official pre-flight weather briefing. Therefore, it's important that pilots still call and obtain an official FSS pre-flight weather briefing.